User: anonymous   Login
Location: Most
(50.5133°N, 13.6207°E)
Time: 06:12:34
(UTC+02:00)
Language:

SEEDS - Orbit

View from above orbital plane
View from above orbital plane
View from above satellite
View from above satellite

Ground track
Ground track

The orbit data is extracted from the following two-line orbital elements,

1 32791U 08021J   22274.67823284  .00004999  00000-0  48343-3 0  9996
2 32791  97.6240 247.6319 0012232 187.2672 172.8373 14.93167336783043
Epoch (UTC): 01 October 2022 16:16:39
Eccentricity: 0.0012232
inclination: 97.6240°
perigee height: 579 km
apogee height: 596 km
right ascension of ascending node: 247.6319°
argument of perigee: 187.2672°
revolutions per day: 14.93167336
mean anomaly at epoch: 172.8373°
orbit number at epoch: 78304

The dashed part of the orbit path shows where the satellite is in the earth's shadow,  

DLR